Location: 相模原市立博物館
(35.5593°N, 139.3931°E)
Time: 11:59:48
(UTC+09:00)

Envisat - Pass Details

Date: 31 October 2021
Orbit: 764 x 766 km, 98.2° (Epoch: 30 November)

Event Time Altitude Azimuth Distance (km) Brightness Sun altitude
Rises 03:59:15 0° 24° (NNE) 3,235 6.6 -25.7°
Reaches altitude 10° 04:01:50 10° 36° (NE) 2,304 5.9 -25.1°
Maximum altitude 04:06:15 30° 96° (E) 1,346 4.9 -24.2°
Drops below altitude 10° 04:10:40 10° 157° (SSE) 2,291 5.7 -23.3°
Sets 04:13:13 0° 168° (SSE) 3,212 6.4 -22.8°
